Location: Sungai Bunut
(2.6333°N, 113.7333°E)
Time: 14:09:19
(UTC+00:00)

Vanguard 3 - Pass Details

Date: 04 December 2023
Orbit: 508 x 3239 km, 33.3° (Epoch: 21 February)

Event Time Altitude Azimuth Distance (km) Brightness Sun altitude
Rises 11:36:52 0° 241° (WSW) 7,200 13.6 -19.9°
Reaches altitude 10° 11:41:52 10° 243° (WSW) 6,151 12.8 -21.0°
Maximum altitude 12:00:52 67° 322° (NW) 2,760 9.7 -25.4°
Enters shadow 12:08:14 33° 33° (NNE) 3,173 9.6 -27.1°
Drops below altitude 10° 12:13:08 10° 43° (NE) 4,170 - -28.2°
Sets 12:15:52 0° 47° (NE) 4,856 - -28.8°
